EW7541 Weather Reports


time (UTC)temp
C
wind
direction
speed
KPH
gust
KPH
rain 1hr
cm
rain 24hr
cm
rain mn
cm
humidity
%
barometer
mb
20260906113521 23 0.0 3.2 0.00 0.03 0.00 79 1008.9
20260906112523 23 0.0 0.0 0.00 0.03 0.00 79 1008.9
20260906111522 23 0.0 0.0 0.00 0.03 0.00 79 1009.0
20260906110523 22 0.0 1.6 0.00 0.03 0.00 80 1008.9
20260906105520 22 0.0 1.6 0.00 0.03 0.00 80 1009.0
20260906104520 22 0.0 0.0 0.00 0.03 0.00 80 1008.9
20260906103525 22 0.0 0.0 0.00 0.03 0.00 79 1008.8
20260906102540 22 0.0 3.2 0.00 0.03 0.00 78 1008.8
20260906101526 22 0.0 0.0 0.00 0.03 0.00 79 1008.6
20260906100523 22 0.0 0.0 0.00 0.03 0.00 78 1008.6
20260906095548 22 0.0 1.6 0.00 0.03 0.00 78 1008.6
20260906094520 22 0.0 1.6 0.00 0.03 0.00 78 1008.7
20260906093520 22 0.0 1.6 0.00 0.03 0.00 79 1008.8
20260906092520 23 0.0 1.6 0.00 0.03 0.00 78 1009.0
20260906091519 23 0.0 3.2 0.00 0.03 0.00 77 1009.5
20260906090523 23 0.0 0.0 0.00 0.03 0.00 76 1009.5
20260906085540 23 0.0 0.0 0.00 0.03 0.00 75 1009.5
20260906084540 23 0.0 0.0 0.00 0.03 0.00 75 1009.6
20260906083520 23 0.0 0.0 0.00 0.03 0.00 75 1009.6
20260906082520 23 0.0 0.0 0.00 0.03 0.00 75 1009.6
20260906081520 23 0.0 0.0 0.00 0.03 0.00 75 1009.8
20260906080523 23 0.0 1.6 0.00 0.03 0.00 74 1009.7
20260906075600 23 0.0 3.2 0.00 0.03 0.00 75 1009.7
20260906074519 23 0.0 1.6 0.00 0.03 0.00 75 1009.8
20260906073543 23 0 1.6 1.6 0.00 0.03 0.00 75 1009.8
20260906072656 23 0.0 1.6 0.00 0.03 0.00 74 1009.8
20260906072020 23 0.0 0.0 0.00 0.03 0.00 73 1009.8
20260906071020 23 0 1.6 1.6 0.00 0.03 0.00 73 1010.0
20260906070019 24 0.0 0.0 0.00 0.03 0.00 73 1010.0
20260906065103 24 0.0 1.6 0.00 0.03 0.00 73 1010.1
20260906064020 24 0.0 0.0 0.00 0.03 0.00 73 1010.0
20260906063020 24 0.0 0.0 0.00 0.03 0.00 73 1010.0
20260906062039 23 0.0 0.0 0.00 0.03 0.00 74 1009.7
20260906061023 23 0.0 0.0 0.00 0.03 0.00 74 1010.1
20260906060019 23 0.0 0.0 0.00 0.03 0.00 75 1010.2
20260906055020 23 0.0 0.0 0.00 0.03 0.00 74 1010.3
20260906054019 24 0.0 0.0 0.00 0.03 0.00 73 1010.6
20260906053040 24 0.0 0.0 0.00 0.03 0.00 73 1010.8
20260906052023 24 0.0 1.6 0.00 0.03 0.00 73 1010.9
20260906051023 24 0.0 1.6 0.00 0.03 0.00 73 1010.7
20260906050019 23 0 1.6 1.6 0.00 0.03 0.00 73 1010.7
20260906045020 23 0.0 0.0 0.00 0.03 0.00 73 1010.8
20260906044102 23 0.0 1.6 0.00 0.03 0.00 73 1010.9
20260906043023 23 0.0 1.6 0.00 0.03 0.00 74 1010.8
20260906042026 23 0.0 0.0 0.00 0.03 0.00 76 1010.7
20260906041032 23 0.0 0.0 0.00 0.03 0.00 77 1010.8
20260906040024 22 0.0 0.0 0.00 0.03 0.03 80 1010.6
20260906035039 22 0.0 1.6 0.00 0.03 0.03 83 1010.7
20260906034019 22 0.0 0.0 0.00 0.03 0.03 82 1010.8
20260906033022 23 0.0 3.2 0.00 0.03 0.03 79 1010.9
20260906032019 23 0.0 0.0 0.00 0.03 0.03 74 1010.5
20260906031039 23 0.0 0.0 0.00 0.03 0.03 75 1010.6
20260906030019 23 0.0 0.0 0.00 0.03 0.03 80 1010.6
20260906025022 22 0 1.6 4.8 0.00 0.03 0.03 85 1010.7
20260906024019 23 113 1.6 6.4 0.00 0.03 0.03 80 1011.2
20260906023019 23 0.0 0.0 0.00 0.03 0.03 78 1011.1
20260906022019 24 0.0 0.0 0.00 0.03 0.03 76 1010.9
20260906021019 24 0.0 0.0 0.00 0.03 0.03 76 1010.8
20260906020020 25 0.0 0.0 0.00 0.03 0.03 75 1010.7
20260906015019 25 0.0 0.0 0.00 0.03 0.03 71 1010.2
20260906014040 25 0.0 0.0 0.00 0.03 0.03 73 1010.0
20260906013019 25 0.0 0.0 0.00 0.03 0.03 74 1009.8
20260906012019 24 0.0 0.0 0.00 0.03 0.03 75 1009.3
20260906011019 24 0.0 0.0 0.00 0.03 0.03 77 1009.1
20260906010039 24 0.0 0.0 0.00 0.03 0.03 77 1008.6
20260906005020 24 0.0 0.0 0.00 0.03 0.03 78 1008.6
20260906004019 24 0.0 0.0 0.00 0.03 0.03 78 1008.4
20260906003019 25 0.0 0.0 0.00 0.03 0.03 75 1008.2
20260906002019 25 0.0 0.0 0.00 0.03 0.03 76 1008.1
20260906001020 24 0.0 1.6 0.00 0.03 0.03 81 1007.9
20260906000019 24 0.0 0.0 0.00 0.03 0.03 81 1008.0
20260905235021 24 0.0 1.6 0.00 0.03 0.03 82 1008.1
20260905234019 24 0.0 0.0 0.00 0.03 0.03 81 1008.2
20260905233044 25 0.0 1.6 0.00 0.03 0.03 80 1008.8
20260905232019 25 0.0 0.0 0.00 0.03 0.03 80 1008.6
20260905231039 25 0.0 0.0 0.00 0.03 0.03 77 1009.0
20260905230039 25 0.0 0.0 0.00 0.03 0.03 79 1008.8
20260905225019 25 0.0 0.0 0.00 0.03 0.03 79 1008.8
20260905224022 26 0.0 0.0 0.00 0.03 0.03 77 1009.1
20260905223019 26 0.0 0.0 0.00 0.03 0.03 77 1009.0
20260905222023 25 0.0 0.0 0.00 0.03 0.03 76 1009.1
20260905221059 25 0.0 1.6 0.03 0.03 0.03 73 1008.8
20260905220042 25 0.0 0.0 0.03 0.03 0.03 76 1008.4
20260905215019 24 0.0 1.6 0.03 0.03 0.03 78 1008.1
20260905214019 24 0.0 0.0 0.03 0.03 0.03 78 1008.1
20260905213019 25 0.0 0.0 0.03 0.03 0.03 81 1008.2
20260905212022 25 0.0 3.2 0.03 0.03 0.03 80 1008.4
20260905211102 26 23 1.6 3.2 0.00 0.00 0.00 76 1009.0
20260905210019 28 45 1.6 11.3 0.00 0.00 0.00 68 1009.4
20260905205019 30 0.0 4.8 0.00 0.00 0.00 63 1009.6
20260905204019 30 0.0 1.6 0.00 0.00 0.00 61 1009.5
20260905203019 31 0.0 3.2 0.00 0.00 0.00 61 1009.6
20260905202019 31 0.0 1.6 0.00 0.00 0.00 56 1009.7
20260905201019 31 0.0 0.0 0.00 0.00 0.00 57 1009.9
20260905200019 31 0.0 3.2 0.00 0.00 0.00 55 1010.0
20260905195018 31 0.0 1.6 0.00 0.00 0.00 52 1009.9
20260905194019 32 0.0 3.2 0.00 0.00 0.00 53 1010.0
20260905193027 32 0.0 1.6 0.00 0.00 0.00 52 1010.4
20260905192019 33 0.0 0.0 0.00 0.00 0.00 51 1010.6
20260905191019 32 0.0 1.6 0.00 0.00 0.00 51 1010.8
20260905190018 33 0.0 1.6 0.00 0.00 0.00 50 1010.8
20260905185021 33 0.0 1.6 0.00 0.00 0.00 51 1010.8
20260905184019 32 0.0 1.6 0.00 0.00 0.00 51 1010.8
20260905183038 33 0.0 0.0 0.00 0.00 0.00 53 1010.9
20260905182019 33 0.0 0.0 0.00 0.00 0.00 50 1011.2
20260905181019 32 0.0 0.0 0.00 0.00 0.00 57 1011.4
20260905180018 32 0.0 1.6 0.00 0.00 0.00 55 1011.5
20260905175018 32 0.0 1.6 0.00 0.00 0.00 58 1011.5
20260905174018 32 0.0 1.6 0.00 0.00 0.00 57 1011.7
20260905173021 32 0.0 1.6 0.00 0.00 0.00 58 1012.0
20260905172019 32 0.0 1.6 0.00 0.00 0.00 59 1011.9
20260905171042 32 0.0 0.0 0.00 0.00 0.00 59 1012.0
20260905170018 32 0.0 1.6 0.00 0.00 0.00 59 1012.0
20260905165040 32 0.0 0.0 0.00 0.00 0.00 61 1012.1
20260905164022 32 0.0 1.6 0.00 0.00 0.00 60 1012.3
20260905163021 31 0.0 1.6 0.00 0.00 0.00 64 1012.4
20260905162020 31 0.0 1.6 0.00 0.00 0.00 62 1012.5
20260905161020 31 0.0 0.0 0.00 0.00 0.00 64 1012.6
20260905160022 30 0.0 0.0 0.00 0.00 0.00 67 1012.6
20260905155029 30 0.0 1.6 0.00 0.00 0.00 67 1012.7
20260905154019 30 0.0 0.0 0.00 0.00 0.00 68 1012.6
20260905153021 30 0.0 1.6 0.00 0.00 0.00 66 1012.7
20260905152110 30 0.0 0.0 0.00 0.00 0.00 66 1012.7
20260905151040 30 0.0 1.6 0.00 0.00 0.00 64 1012.7
20260905150018 30 0.0 0.0 0.00 0.00 0.00 67 1012.8
20260905145020 30 0.0 0.0 0.00 0.00 0.00 67 1012.8
20260905144022 30 0.0 0.0 0.00 0.00 0.00 65 1012.8
20260905143020 30 0.0 0.0 0.00 0.00 0.00 67 1012.9
20260905142041 29 0.0 0.0 0.00 0.00 0.00 68 1012.6
20260905141025 29 0.0 1.6 0.00 0.00 0.00 70 1012.7
20260905140020 28 0.0 1.6 0.00 0.00 0.00 69 1012.9
20260905135029 27 0.0 1.6 0.00 0.00 0.00 73 1012.7
20260905134020 27 0.0 0.0 0.00 0.00 0.00 74 1012.8
20260905133041 26 0.0 0.0 0.00 0.00 0.00 78 1012.7
20260905132020 25 0.0 0.0 0.00 0.00 0.00 80 1012.6
20260905131020 25 0.0 0.0 0.00 0.00 0.00 83 1012.6
20260905130020 24 0.0 0.0 0.00 0.00 0.00 84 1012.4
20260905125020 24 0.0 0.0 0.00 0.00 0.00 84 1012.3
20260905124020 23 0.0 0.0 0.00 0.00 0.00 84 1012.3
20260905123020 23 0.0 0.0 0.00 0.00 0.00 83 1012.3
20260905122019 23 0.0 0.0 0.00 0.00 0.00 83 1012.2
20260905121021 23 0.0 0.0 0.00 0.00 0.00 82 1012.1
20260905120020 23 0.0 0.0 0.00 0.00 0.00 81 1012.1
20260905115020 23 0.0 0.0 0.00 0.00 0.00 81 1011.9
20260905114020 23 0.0 0.0 0.00 0.00 0.00 81 1012.0